Terminal Aerodrome Forecast
Issued by NWS Sterling, VA

Home | Current Version | Previous Version | Text Only | Print | Product List | Glossary On
Versions: 1 2 3 4 5 6 7 8 9 10 11 12 13 14 15 16 17 18 19 20 21
000
FTUS41 KLWX 311100
TAFBWI
TAF
KBWI 311126Z 3112/0118 VRB03KT P6SM SCT130
     FM311600 23008KT P6SM SCT060
     FM010000 VRB03KT P6SM BKN070
     FM011600 13005KT P6SM BKN070=

USA.gov is the U.S. government's official web portal to all federal, state and local government web resources and services.